sat.trackr.live / text

‹ back to catalog

STARLINK-34591

NORAD 64734 · 2025-144L

PAYLOAD ACTIVE UNKNOWN

§ Identity

Operator
Country
US
Launch date
2025-07-02
Launch site
AFETR
Launch vehicle
Mass (kg)
RCS (m²)

Purposes: comms

External: N2YO · Heavens-Above · Gunter

§ Orbital elements

Epoch: 2026-09-20T12:27:42.217632Z

Period
93.85 min
Inclination
53.1601°
Eccentricity
0.0001567
Mean motion
15.34420061 rev/d
Perigee alt
461.6 km
Apogee alt
463.7 km
Semi-major
6,840.8 km
B*
7.0031e-4
RAAN
353.7724°
Arg perigee
85.8594°
Mean anomaly
274.2588°
Rev number
6,955

§ Raw data

STARLINK-345911 64734U 25144L   26263.51923863  .00023374  00000+0  70031-3 0  99982 64734  53.1601 353.7724 0001567  85.8594 274.2588 15.34420061 69558

JSON: /api/v1/satellites/64734 · /tle

For live sub-satellite position, see the globe view (requires WebGL).

§ Visibility from observer

Set your observer location to see the next 7 days of passes ≥ 10°. The values pass through the URL so the page stays shareable.

No JS? Fill the form by hand. The geolocation button needs JavaScript.